Location: ?????????
(53.2086°N, 54.0693°E)
Time: 18:55:44
(UTC+00:00)

Cosmos 1980 Rocket - Pass Details

Date: 08 December 2019
Orbit: 829 x 850 km, 71.0° (Epoch: 27 January)

Event Time Altitude Azimuth Distance (km) Brightness Sun altitude
Rises 14:26:57 0° 289° (WNW) 3,420 6.4 -19.7°
Reaches altitude 10° 14:30:40 10° 313° (NW) 2,487 5.1 -20.2°
Maximum altitude 14:33:45 15° 346° (NNW) 2,178 4.4 -20.7°
Enters shadow 14:36:23 11° 15° (NNE) 2,411 4.3 -21.1°
